• Join FlightAware (Why Join?)
  • Login
  • US Flag 
04:20PM EDT


 

Airport Tracker/Info


-or-


 

Live Flight TrackerFlight Track Log ✈ FSR411 ✈ 20-Aug-2013 ✈ KAUS - KCMI

Flight Track Log - Related Links

Times and Time Zones

All times are in EDT time to prevent confusion due to time zone crossing. See the FSR411 flight status page for this flight to view local times or setup timezone preferences in your user account.

Time Position Orientation Groundspeed Altitude Reporting Facility
EDT Latitude Longitude Course Direction KTS MPH feet Rate Location/Type
04:58PM 30.1339 -97.7161 326° Northwest 238 274 6,200  Level Houston Center
04:59PM 30.2031 -97.7547 334° Northwest 270 311 9,600 3,480 Climbing Houston Center
05:00PM 30.2814 -97.7847 342° North 289 333 13,400 3,540 Climbing Houston Center
05:01PM 30.3708 -97.8192 342° North 323 372 17,000 3,420 Climbing Houston Center
05:02PM 30.6660 -97.7328 330° Northwest  Level FlightAware Approximate
05:02PM 30.4672 -97.8578 341° North 352 405 20,500  Level Houston Center
05:03PM 30.7544 -97.8129 326° Northwest  Level FlightAware Approximate
05:03PM 30.5839 -97.9036 341° North 372 428 23,300  Level Houston Center
05:04PM 30.6953 -97.9447 342° North 402 463 25,400 1,980 Climbing Houston Center
05:05PM 30.8142 -97.9114 14° North 430 495 27,500 1,980 Climbing Houston Center
05:06PM 30.9322 -97.8703 17° North 434 499 29,500 1,920 Climbing Houston Center
05:07PM 31.0350 -97.8353 16° North 427 491 31,100 1,680 Climbing Fort Worth Center
05:08PM 31.1564 -97.7944 16° North 440 506 32,600 1,500 Climbing Fort Worth Center
05:09PM 31.2817 -97.7536 16° North 452 520 34,200 1,440 Climbing Fort Worth Center
05:10PM 31.4028 -97.7078 18° North 457 526 35,600 1,200 Climbing Fort Worth Center
05:11PM 31.5158 -97.6692 16° North 463 533 36,700 1,260 Climbing Fort Worth Center
05:12PM 31.6389 -97.6256 17° North 463 533 38,100 1,380 Climbing Fort Worth Center
05:13PM 31.7644 -97.5819 16° North 463 533 39,500 1,200 Climbing Fort Worth Center
05:14PM 31.8875 -97.5358 18° North 456 525 40,500 720 Climbing Fort Worth Center
05:15PM 32.0044 -97.4992 15° North 456 525 41,000 240 Climbing Fort Worth Center
05:16PM 32.1278 -97.4550 17° North 451 519 41,000  Level Fort Worth Center
05:17PM 32.2508 -97.4108 17° North 451 519 41,000  Level Fort Worth Center
05:18PM 32.3719 -97.3667 17° North 456 525 41,000  Level Fort Worth Center
05:19PM 32.4972 -97.3222 17° North 456 525 41,000  Level Fort Worth Center
05:20PM 32.6161 -97.2803 17° North 456 525 41,000  Level Fort Worth Center
05:21PM 32.7372 -97.2356 17° North 456 525 41,000  Level Fort Worth Center
05:22PM 32.8769 -97.1736 20° North 469 540 41,000  Level Fort Worth Center
05:23PM 32.9811 -97.0817 37° Northeast 471 542 41,000  Level Fort Worth Center
05:24PM 33.0706 -96.9819 43° Northeast 466 536 41,000  Level Fort Worth Center
05:25PM 33.1661 -96.8775 42° Northeast 472 543 41,000  Level Fort Worth Center
05:26PM 33.2617 -96.7725 43° Northeast 467 537 41,000  Level Fort Worth Center
05:27PM 33.3592 -96.6647 43° Northeast 467 537 41,000  Level Fort Worth Center
05:28PM 33.4547 -96.5594 43° Northeast 467 537 41,000  Level Fort Worth Center
05:29PM 33.5519 -96.4514 43° Northeast 467 537 41,000  Level Fort Worth Center
05:30PM 33.6492 -96.3431 43° Northeast 467 537 41,000  Level Fort Worth Center
05:31PM 33.7464 -96.2344 43° Northeast 467 537 41,000  Level Fort Worth Center
05:32PM 33.8411 -96.1256 44° Northeast 467 537 41,000  Level Fort Worth Center
05:33PM 33.9403 -96.0164 42° Northeast 467 537 41,000  Level Fort Worth Center
05:34PM 34.0392 -95.9072 42° Northeast 472 543 41,000  Level Fort Worth Center
05:35PM 34.1297 -95.8003 44° Northeast 466 536 41,000  Level Fort Worth Center
05:36PM 34.2283 -95.6878 43° Northeast 473 544 41,000  Level Fort Worth Center
05:37PM 34.3372 -95.5650 43° Northeast 480 552 41,000  Level Fort Worth Center
05:38PM 34.4356 -95.4519 43° Northeast 480 552 41,000  Level Fort Worth Center
05:39PM 34.5319 -95.3414 43° Northeast 480 552 41,000  Level Fort Worth Center
05:41PM 34.6783 -95.1806 42° Northeast 480 552 41,000  Level Memphis Center
05:42PM 34.7811 -95.0575 45° Northeast 480 552 41,000  Level Memphis Center
05:43PM 34.8750 -94.9489 43° Northeast 474 545 41,000  Level Memphis Center
05:44PM 34.9686 -94.8372 44° Northeast 468 539 41,000  Level Memphis Center
05:45PM 35.0600 -94.7331 43° Northeast 462 532 41,000  Level Memphis Center
05:46PM 35.1539 -94.6108 47° Northeast 468 539 41,000  Level Memphis Center
05:47PM 35.2472 -94.5039 43° Northeast 467 537 41,000  Level Memphis Center
05:48PM 35.3406 -94.3964 43° Northeast 457 526 41,000  Level Memphis Center
05:49PM 35.4336 -94.2889 43° Northeast 452 520 41,000  Level Memphis Center
05:50PM 35.5247 -94.1783 45° Northeast 452 520 41,000  Level Memphis Center
05:51PM 35.6156 -94.0675 45° Northeast 452 520 41,000  Level Memphis Center
05:52PM 35.7064 -93.9592 44° Northeast 452 520 41,000  Level Memphis Center
05:53PM 35.7992 -93.8506 44° Northeast 452 520 41,000  Level Memphis Center
05:54PM 35.8875 -93.7417 45° Northeast 446 513 41,000  Level Memphis Center
05:55PM 35.9803 -93.6325 44° Northeast 451 519 41,000  Level Memphis Center
05:56PM 36.0706 -93.5206 45° Northeast 451 519 41,000  Level Memphis Center
05:57PM 36.1611 -93.4083 45° Northeast 451 519 41,000  Level Memphis Center
05:58PM 36.2533 -93.2986 44° Northeast 451 519 41,000  Level Memphis Center
06:00PM 36.4528 -93.0511 45° Northeast 462 532 41,000  Level Kansas City Center
06:01PM 36.5444 -92.9369 45° Northeast 464 534 41,000  Level Kansas City Center
06:02PM 36.6322 -92.8283 45° Northeast 462 532 41,000  Level Kansas City Center
06:03PM 36.7236 -92.7136 45° Northeast 464 534 41,000  Level Kansas City Center
06:04PM 36.8342 -92.5756 45° Northeast 466 536 41,000  Level Kansas City Center
06:05PM 36.9244 -92.4597 46° Northeast 467 537 41,000  Level Kansas City Center
06:06PM 37.0172 -92.3444 45° Northeast 468 539 41,000  Level Kansas City Center
06:07PM 37.1089 -92.2303 45° Northeast 467 537 41,000  Level Kansas City Center
06:08PM 37.2003 -92.1128 46° Northeast 469 540 41,000  Level Kansas City Center
06:09PM 37.3100 -91.9725 45° Northeast 471 542 41,000  Level Kansas City Center
06:10PM 37.4019 -91.8564 45° Northeast 470 541 41,000  Level Kansas City Center
06:11PM 37.4925 -91.7397 46° Northeast 469 540 41,000  Level Kansas City Center
06:12PM 37.5831 -91.6239 45° Northeast 467 537 41,000  Level Kansas City Center
06:13PM 37.6744 -91.5067 45° Northeast 469 540 41,000  Level Kansas City Center
06:14PM 37.7658 -91.3897 45° Northeast 470 541 41,000  Level Kansas City Center
06:15PM 37.8742 -91.2478 46° Northeast 469 540 41,000  Level Kansas City Center
06:16PM 37.9644 -91.1306 46° Northeast 467 537 41,000  Level Kansas City Center
06:17PM 38.0514 -91.0147 46° Northeast 469 540 41,000  Level Kansas City Center
06:18PM 38.1403 -90.8958 46° Northeast 468 539 41,000  Level Kansas City Center
06:19PM 38.2314 -90.7764 46° Northeast 470 541 41,000  Level Kansas City Center
06:20PM 38.3378 -90.6322 47° Northeast 469 540 41,000 -60 Level Kansas City Center
06:21PM 38.4308 -90.5061 47° Northeast 468 539 40,900 -540 Descending Kansas City Center
06:22PM 38.5178 -90.3872 47° Northeast 461 531 40,000 -900 Descending Kansas City Center
06:23PM 38.5989 -90.2756 47° Northeast 465 535 39,100 -1,080 Descending Kansas City Center
06:24PM 38.7011 -90.1517 43° Northeast 469 540 37,800 -1,800 Descending Kansas City Center
06:26PM 38.7847 -90.0342 48° Northeast 450 518 35,500 -2,400 Descending Kansas City Center
06:27PM 38.8750 -89.9078 47° Northeast 451 519 32,800 -2,640 Descending Kansas City Center
06:28PM 38.9706 -89.7792 46° Northeast 451 519 30,100 -2,520 Descending Kansas City Center
06:29PM 39.0594 -89.6575 47° Northeast 463 533 27,600 -2,580 Descending Kansas City Center
06:30PM 39.1547 -89.5253 47° Northeast 468 539 24,800 -2,160 Descending Kansas City Center
06:31PM 39.2422 -89.4033 47° Northeast 466 536 23,100 -960 Descending Kansas City Center
06:32PM 39.3242 -89.2886 47° Northeast 453 521 22,900 -1,020 Descending Kansas City Center
06:33PM 39.4067 -89.1739 47° Northeast 443 510 21,100 -2,280 Descending Kansas City Center
06:34PM 39.4864 -89.0603 48° Northeast 435 501 18,200 -2,760 Descending Kansas City Center
06:35PM 39.5625 -88.9544 47° Northeast 424 488 15,500 -2,640 Descending Kansas City Center
06:36PM 39.6350 -88.8517 47° Northeast 410 472 12,700 -2,400 Descending Kansas City Center
06:37PM 39.7206 -88.7497 42° Northeast 382 440 10,500 -1,860 Descending Kansas City Center
06:38PM 39.7939 -88.6814 36° Northeast 349 402 9,000 -1,740 Descending Kansas City Center
06:39PM 39.8583 -88.6208 36° Northeast 319 367 7,000 -1,920 Descending Kansas City Center
06:40PM 39.9231 -88.5592 36° Northeast 303 349 5,000 -1,620 Descending Kansas City Center
06:41PM 39.9850 -88.5003 36° Northeast 292 336 3,600 -1,080 Descending Kansas City Center
06:42PM 40.0464 -88.4358 39° Northeast 282 325 2,800 -840 Descending Kansas City Center
06:44PM 40.0388 -88.2778 49° Northeast  Level Estimated
06:51PM 40.0388 -88.2778 49° Northeast  Level Estimated
06:52PM 40.0388 -88.2778 49° Northeast  Level Estimated
06:53PM 40.0388 -88.2778 49° Northeast  Level Estimated
06:54PM 40.0388 -88.2778 49° Northeast  Level Estimated